Location: Amsterdam
(30.7274°N, 84.4357°W)
Time: 19:33:56
(UTC+00:00)

Altair - Pass Details

Date: 11 August 2024
Orbit: 1501 x 1682 km, 47.2° (Epoch: 07 September)

Event Time Altitude Azimuth Distance (km) Brightness Sun altitude
Rises 18:02:32 0° 254° (WSW) 4,899 10.3 73.6°
Reaches altitude 10° 18:05:55 10° 260° (W) 3,895 9.9 73.4°
Maximum altitude 18:15:24 47° 332° (NNW) 2,034 8.8 72.5°
Drops below altitude 10° 18:24:35 10° 45° (NE) 3,766 9.5 71.5°
Sets 18:27:49 0° 52° (NE) 4,727 9.9 71.2°
